Year,Month,Day,Hour,Minute,Value (Times are PST for windgust in km/hr)
2012,07,07,00,00,3.20
2012,07,07,00,01,3.20
2012,07,07,00,02,3.20
2012,07,07,00,03,3.20
2012,07,07,00,04,3.20
2012,07,07,00,11,1.60
2012,07,07,00,14,1.60
2012,07,07,00,16,1.60
2012,07,07,00,17,4.80
2012,07,07,00,18,3.20
2012,07,07,00,19,3.20
2012,07,07,00,20,4.80
2012,07,07,00,21,1.60
2012,07,07,00,24,1.60
2012,07,07,00,25,1.60
2012,07,07,00,26,3.20
2012,07,07,00,27,1.60
2012,07,07,00,28,1.60
2012,07,07,00,29,3.20
2012,07,07,00,30,4.80
2012,07,07,00,31,1.60
2012,07,07,00,32,1.60
2012,07,07,00,33,3.20
2012,07,07,00,34,1.60
2012,07,07,00,35,3.20
2012,07,07,00,36,1.60
2012,07,07,00,37,3.20
2012,07,07,00,38,1.60
2012,07,07,00,39,3.20
2012,07,07,00,40,3.20
2012,07,07,00,41,3.20
2012,07,07,00,42,3.20
2012,07,07,00,43,1.60
2012,07,07,00,44,3.20
2012,07,07,00,45,4.80
2012,07,07,00,46,4.80
2012,07,07,00,47,3.20
2012,07,07,00,48,3.20
2012,07,07,00,50,3.20
2012,07,07,00,51,1.60
2012,07,07,00,52,1.60
2012,07,07,00,53,3.20
2012,07,07,00,54,1.60
2012,07,07,00,55,4.80
2012,07,07,00,56,1.60
2012,07,07,00,57,1.60
2012,07,07,00,58,1.60
2012,07,07,00,59,1.60
2012,07,07,01,00,3.20
2012,07,07,01,01,4.80
2012,07,07,01,02,1.60
2012,07,07,01,03,1.60
2012,07,07,01,04,3.20
2012,07,07,01,05,1.60
2012,07,07,01,06,1.60
2012,07,07,01,07,3.20
2012,07,07,01,08,1.60
2012,07,07,01,32,3.20
2012,07,07,01,33,3.20
2012,07,07,01,34,3.20
2012,07,07,01,35,1.60
2012,07,07,01,47,1.60
2012,07,07,02,15,1.60
2012,07,07,02,16,1.60
2012,07,07,02,18,1.60
2012,07,07,02,19,1.60
2012,07,07,02,20,1.60
2012,07,07,02,21,1.60
2012,07,07,02,23,1.60
2012,07,07,02,24,1.60
2012,07,07,02,25,1.60
2012,07,07,02,26,1.60
2012,07,07,02,38,1.60
2012,07,07,02,40,3.20
2012,07,07,02,41,3.20
2012,07,07,02,42,3.20
2012,07,07,02,43,3.20
2012,07,07,02,44,1.60
2012,07,07,02,46,1.60
2012,07,07,02,47,1.60
2012,07,07,03,38,1.60
2012,07,07,03,39,1.60
2012,07,07,03,40,1.60
2012,07,07,03,41,1.60
2012,07,07,04,12,1.60
2012,07,07,05,48,1.60
2012,07,07,05,49,1.60
2012,07,07,06,20,1.60
2012,07,07,06,21,1.60
2012,07,07,07,22,1.60
2012,07,07,07,26,1.60
2012,07,07,07,27,1.60
2012,07,07,07,28,3.20
2012,07,07,07,29,1.60
2012,07,07,07,30,3.20
2012,07,07,07,31,3.20
2012,07,07,07,32,3.20
2012,07,07,07,33,3.20
2012,07,07,07,34,3.20
2012,07,07,07,35,1.60
2012,07,07,07,36,1.60
2012,07,07,07,37,1.60
2012,07,07,07,43,1.60
2012,07,07,07,44,1.60
2012,07,07,07,46,1.60
2012,07,07,07,47,3.20
2012,07,07,07,48,1.60
2012,07,07,07,49,3.20
2012,07,07,07,50,3.20
2012,07,07,07,51,1.60
2012,07,07,07,54,1.60
2012,07,07,07,55,1.60
2012,07,07,07,56,3.20
2012,07,07,07,57,4.80
2012,07,07,07,58,4.80
2012,07,07,07,59,4.80
2012,07,07,08,00,3.20
2012,07,07,08,01,4.80
2012,07,07,08,02,4.80
2012,07,07,08,03,4.80
2012,07,07,08,04,3.20
2012,07,07,08,05,3.20
2012,07,07,08,06,4.80
2012,07,07,08,07,4.80
2012,07,07,08,08,4.80
2012,07,07,08,09,4.80
2012,07,07,08,10,3.20
2012,07,07,08,11,3.20
2012,07,07,08,12,1.60
2012,07,07,08,13,3.20
2012,07,07,08,14,3.20
2012,07,07,08,15,3.20
2012,07,07,08,16,1.60
2012,07,07,08,19,1.60
2012,07,07,08,20,1.60
2012,07,07,08,21,3.20
2012,07,07,08,22,4.80
2012,07,07,08,23,3.20
2012,07,07,08,24,1.60
2012,07,07,08,25,1.60
2012,07,07,08,26,1.60
2012,07,07,08,27,1.60
2012,07,07,08,28,4.80
2012,07,07,08,29,3.20
2012,07,07,08,30,1.60
2012,07,07,08,31,3.20
2012,07,07,08,32,1.60
2012,07,07,08,33,3.20
2012,07,07,08,34,4.80
2012,07,07,08,35,3.20
2012,07,07,08,36,1.60
2012,07,07,08,37,3.20
2012,07,07,08,38,4.80
2012,07,07,08,39,6.40
2012,07,07,08,40,8.10
2012,07,07,08,41,4.80
2012,07,07,08,42,3.20
2012,07,07,08,43,3.20
2012,07,07,08,44,4.80
2012,07,07,08,45,4.80
2012,07,07,08,46,1.60
2012,07,07,08,47,1.60
2012,07,07,08,48,3.20
2012,07,07,08,49,1.60
2012,07,07,08,50,1.60
2012,07,07,08,51,6.40
2012,07,07,08,52,3.20
2012,07,07,08,53,1.60
2012,07,07,08,54,3.20
2012,07,07,08,56,3.20
2012,07,07,08,57,1.60
2012,07,07,08,58,4.80
2012,07,07,08,59,3.20
2012,07,07,09,00,1.60
2012,07,07,09,01,3.20
2012,07,07,09,02,4.80
2012,07,07,09,03,3.20
2012,07,07,09,04,1.60
2012,07,07,09,05,3.20
2012,07,07,09,06,4.80
2012,07,07,09,07,1.60
2012,07,07,09,08,3.20
2012,07,07,09,10,4.80
2012,07,07,09,11,6.40
2012,07,07,09,12,4.80
2012,07,07,09,13,4.80
2012,07,07,09,14,1.60
2012,07,07,09,15,1.60
2012,07,07,09,16,1.60
2012,07,07,09,17,1.60
2012,07,07,09,18,1.60
2012,07,07,09,19,1.60
2012,07,07,09,20,1.60
2012,07,07,09,21,4.80
2012,07,07,09,22,4.80
2012,07,07,09,23,4.80
2012,07,07,09,24,3.20
2012,07,07,09,25,1.60
2012,07,07,09,26,3.20
2012,07,07,09,27,3.20
2012,07,07,09,28,3.20
2012,07,07,09,30,4.80
2012,07,07,09,31,6.40
2012,07,07,09,32,4.80
2012,07,07,09,33,1.60
2012,07,07,09,34,1.60
2012,07,07,09,35,1.60
2012,07,07,09,36,1.60
2012,07,07,09,37,4.80
2012,07,07,09,38,4.80
2012,07,07,09,39,6.40
2012,07,07,09,40,6.40
2012,07,07,09,41,4.80
2012,07,07,09,42,3.20
2012,07,07,09,43,4.80
2012,07,07,09,44,4.80
2012,07,07,09,45,8.10
2012,07,07,09,46,6.40
2012,07,07,09,47,6.40
2012,07,07,09,48,6.40
2012,07,07,09,49,6.40
2012,07,07,09,50,4.80
2012,07,07,09,51,3.20
2012,07,07,09,52,3.20
2012,07,07,09,53,3.20
2012,07,07,09,54,1.60
2012,07,07,09,55,3.20
2012,07,07,09,56,1.60
2012,07,07,09,57,1.60
2012,07,07,09,58,3.20
2012,07,07,09,59,3.20
2012,07,07,10,00,3.20
2012,07,07,10,01,4.80
2012,07,07,10,02,4.80
2012,07,07,10,03,4.80
2012,07,07,10,04,3.20
2012,07,07,10,05,4.80
2012,07,07,10,06,3.20
2012,07,07,10,07,4.80
2012,07,07,10,08,8.10
2012,07,07,10,09,6.40
2012,07,07,10,10,4.80
2012,07,07,10,11,6.40
2012,07,07,10,12,3.20
2012,07,07,10,13,3.20
2012,07,07,10,14,3.20
2012,07,07,10,15,1.60
2012,07,07,10,16,6.40
2012,07,07,10,17,4.80
2012,07,07,10,18,4.80
2012,07,07,10,19,9.60
2012,07,07,10,20,9.60
2012,07,07,10,21,14.50
2012,07,07,10,22,14.50
2012,07,07,10,23,8.10
2012,07,07,10,24,11.30
2012,07,07,10,25,14.50
2012,07,07,10,26,16.10
2012,07,07,10,27,16.10
2012,07,07,10,28,9.60
2012,07,07,10,29,8.10
2012,07,07,10,30,11.30
2012,07,07,10,31,11.30
2012,07,07,10,32,9.60
2012,07,07,10,33,9.60
2012,07,07,10,34,16.10
2012,07,07,10,35,12.90
2012,07,07,10,36,12.90
2012,07,07,10,37,11.30
2012,07,07,10,38,8.10
2012,07,07,10,39,9.60
2012,07,07,10,40,4.80
2012,07,07,10,41,4.80
2012,07,07,10,42,9.60
2012,07,07,10,43,8.10
2012,07,07,10,44,8.10
2012,07,07,10,45,6.40
2012,07,07,10,46,6.40
2012,07,07,10,47,9.60
2012,07,07,10,48,6.40
2012,07,07,10,49,8.10
2012,07,07,10,50,8.10
2012,07,07,10,51,11.30
2012,07,07,10,52,6.40
2012,07,07,10,53,9.60
2012,07,07,10,54,14.50
2012,07,07,10,55,14.50
2012,07,07,10,56,4.80
2012,07,07,10,57,8.10
2012,07,07,10,58,4.80
2012,07,07,10,59,4.80
2012,07,07,11,00,6.40
2012,07,07,11,01,3.20
2012,07,07,11,02,1.60
2012,07,07,11,03,1.60
2012,07,07,11,04,1.60
2012,07,07,11,05,6.40
2012,07,07,11,06,6.40
2012,07,07,11,07,3.20
2012,07,07,11,08,3.20
2012,07,07,11,09,1.60
2012,07,07,11,10,3.20
2012,07,07,11,11,9.60
2012,07,07,11,12,6.40
2012,07,07,11,13,8.10
2012,07,07,11,14,8.10
2012,07,07,11,15,11.30
2012,07,07,11,16,9.60
2012,07,07,11,17,11.30
2012,07,07,11,18,11.30
2012,07,07,11,19,4.80
2012,07,07,11,20,11.30
2012,07,07,11,21,11.30
2012,07,07,11,22,11.30
2012,07,07,11,23,8.10
2012,07,07,11,24,9.60
2012,07,07,11,25,11.30
2012,07,07,11,26,8.10
2012,07,07,11,27,8.10
2012,07,07,11,28,11.30
2012,07,07,11,29,14.50
2012,07,07,11,30,11.30
2012,07,07,11,31,14.50
2012,07,07,11,32,9.60
2012,07,07,11,33,11.30
2012,07,07,11,34,9.60
2012,07,07,11,35,14.50
2012,07,07,11,36,14.50
2012,07,07,11,37,16.10
2012,07,07,11,38,17.70
2012,07,07,11,39,8.10
2012,07,07,11,40,9.60
2012,07,07,11,41,9.60
2012,07,07,11,42,11.30
2012,07,07,11,43,8.10
2012,07,07,11,44,9.60
2012,07,07,11,45,6.40
2012,07,07,11,46,16.10
2012,07,07,11,47,11.30
2012,07,07,11,48,11.30
2012,07,07,11,49,11.30
2012,07,07,11,50,11.30
2012,07,07,11,51,6.40
2012,07,07,11,52,11.30
2012,07,07,11,53,9.60
2012,07,07,11,54,6.40
2012,07,07,11,55,3.20
2012,07,07,11,56,6.40
2012,07,07,11,57,6.40
2012,07,07,11,58,4.80
2012,07,07,11,59,6.40
2012,07,07,12,00,8.10
2012,07,07,12,01,8.10
2012,07,07,12,02,9.60
2012,07,07,12,03,9.60
2012,07,07,12,04,8.10
2012,07,07,12,05,9.60
2012,07,07,12,06,9.60
2012,07,07,12,07,8.10
2012,07,07,12,08,8.10
2012,07,07,12,09,8.10
2012,07,07,12,10,8.10
2012,07,07,12,11,8.10
2012,07,07,12,12,8.10
2012,07,07,12,13,6.40
2012,07,07,12,14,8.10
2012,07,07,12,15,6.40
2012,07,07,12,16,6.40
2012,07,07,12,17,1.60
2012,07,07,12,18,4.80
2012,07,07,12,19,6.40
2012,07,07,12,20,4.80
2012,07,07,12,21,4.80
2012,07,07,12,22,4.80
2012,07,07,12,23,1.60
2012,07,07,12,24,6.40
2012,07,07,12,25,8.10
2012,07,07,12,26,8.10
2012,07,07,12,27,8.10
2012,07,07,12,28,6.40
2012,07,07,12,29,8.10
2012,07,07,12,30,6.40
2012,07,07,12,31,8.10
2012,07,07,12,32,6.40
2012,07,07,12,33,8.10
2012,07,07,12,34,8.10
2012,07,07,12,35,4.80
2012,07,07,12,36,8.10
2012,07,07,12,37,8.10
2012,07,07,12,38,6.40
2012,07,07,12,39,4.80
2012,07,07,12,40,4.80
2012,07,07,12,41,4.80
2012,07,07,12,42,6.40
2012,07,07,12,43,3.20
2012,07,07,12,44,8.10
2012,07,07,12,45,9.60
2012,07,07,12,46,3.20
2012,07,07,12,47,4.80
2012,07,07,12,48,1.60
2012,07,07,12,49,4.80
2012,07,07,12,50,8.10
2012,07,07,12,51,6.40
2012,07,07,12,52,9.60
2012,07,07,12,53,9.60
2012,07,07,12,54,8.10
2012,07,07,12,55,11.30
2012,07,07,12,56,9.60
2012,07,07,12,57,11.30
2012,07,07,12,58,9.60
2012,07,07,12,59,9.60
2012,07,07,13,00,6.40
2012,07,07,13,01,9.60
2012,07,07,13,02,11.30
2012,07,07,13,03,9.60
2012,07,07,13,04,9.60
2012,07,07,13,05,11.30
2012,07,07,13,06,11.30
2012,07,07,13,07,16.10
2012,07,07,13,08,9.60
2012,07,07,13,09,6.40
2012,07,07,13,10,9.60
2012,07,07,13,11,9.60
2012,07,07,13,12,8.10
2012,07,07,13,13,6.40
2012,07,07,13,14,8.10
2012,07,07,13,15,8.10
2012,07,07,13,16,6.40
2012,07,07,13,17,3.20
2012,07,07,13,18,11.30
2012,07,07,13,19,6.40
2012,07,07,13,20,8.10
2012,07,07,13,21,9.60
2012,07,07,13,22,9.60
2012,07,07,13,23,8.10
2012,07,07,13,24,9.60
2012,07,07,13,25,8.10
2012,07,07,13,26,9.60
2012,07,07,13,27,8.10
2012,07,07,13,28,6.40
2012,07,07,13,29,6.40
2012,07,07,13,30,8.10
2012,07,07,13,31,9.60
2012,07,07,13,32,8.10
2012,07,07,13,33,6.40
2012,07,07,13,34,6.40
2012,07,07,13,35,3.20
2012,07,07,13,36,1.60
2012,07,07,13,37,6.40
2012,07,07,13,38,8.10
2012,07,07,13,39,6.40
2012,07,07,13,40,1.60
2012,07,07,13,41,3.20
2012,07,07,13,42,3.20
2012,07,07,13,43,6.40
2012,07,07,13,44,8.10
2012,07,07,13,45,8.10
2012,07,07,13,46,8.10
2012,07,07,13,47,8.10
2012,07,07,13,48,4.80
2012,07,07,13,49,4.80
2012,07,07,13,50,8.10
2012,07,07,13,51,9.60
2012,07,07,13,52,9.60
2012,07,07,13,53,9.60
2012,07,07,13,54,9.60
2012,07,07,13,55,6.40
2012,07,07,13,56,6.40
2012,07,07,13,57,8.10
2012,07,07,13,58,6.40
2012,07,07,13,59,8.10
2012,07,07,14,00,12.90
2012,07,07,14,01,9.60
2012,07,07,14,02,8.10
2012,07,07,14,03,4.80
2012,07,07,14,04,4.80
2012,07,07,14,06,4.80
2012,07,07,14,07,6.40
2012,07,07,14,09,4.80
2012,07,07,14,10,4.80
2012,07,07,14,11,4.80
2012,07,07,14,12,8.10
2012,07,07,14,13,6.40
2012,07,07,14,14,11.30
2012,07,07,14,15,3.20
2012,07,07,14,16,4.80
2012,07,07,14,17,6.40
2012,07,07,14,18,8.10
2012,07,07,14,19,8.10
2012,07,07,14,20,8.10
2012,07,07,14,21,9.60
2012,07,07,14,22,6.40
2012,07,07,14,23,3.20
2012,07,07,14,24,3.20
2012,07,07,14,25,8.10
2012,07,07,14,26,9.60
2012,07,07,14,27,6.40
2012,07,07,14,28,1.60
2012,07,07,14,29,6.40
2012,07,07,14,30,4.80
2012,07,07,14,31,6.40
2012,07,07,14,32,6.40
2012,07,07,14,33,6.40
2012,07,07,14,34,6.40
2012,07,07,14,35,6.40
2012,07,07,14,36,11.30
2012,07,07,14,37,6.40
2012,07,07,14,38,12.90
2012,07,07,14,39,11.30
2012,07,07,14,40,11.30
2012,07,07,14,41,8.10
2012,07,07,14,42,11.30
2012,07,07,14,43,9.60
2012,07,07,14,44,9.60
2012,07,07,14,45,9.60
2012,07,07,14,46,9.60
2012,07,07,14,47,8.10
2012,07,07,14,48,9.60
2012,07,07,14,49,11.30
2012,07,07,14,50,8.10
2012,07,07,14,51,9.60
2012,07,07,14,52,6.40
2012,07,07,14,53,6.40
2012,07,07,14,54,6.40
2012,07,07,14,55,3.20
2012,07,07,14,56,4.80
2012,07,07,14,57,4.80
2012,07,07,14,58,8.10
2012,07,07,14,59,6.40
2012,07,07,15,00,11.30
2012,07,07,15,01,8.10
2012,07,07,15,02,4.80
2012,07,07,15,03,6.40
2012,07,07,15,04,6.40
2012,07,07,15,05,11.30
2012,07,07,15,06,4.80
2012,07,07,15,07,9.60
2012,07,07,15,08,9.60
2012,07,07,15,09,8.10
2012,07,07,15,10,9.60
2012,07,07,15,11,8.10
2012,07,07,15,12,8.10
2012,07,07,15,13,8.10
2012,07,07,15,14,11.30
2012,07,07,15,15,9.60
2012,07,07,15,16,4.80
2012,07,07,15,17,6.40
2012,07,07,15,18,3.20
2012,07,07,15,19,4.80
2012,07,07,15,20,4.80
2012,07,07,15,21,8.10
2012,07,07,15,22,8.10
2012,07,07,15,23,6.40
2012,07,07,15,24,8.10
2012,07,07,15,25,6.40
2012,07,07,15,26,8.10
2012,07,07,15,27,4.80
2012,07,07,15,28,6.40
2012,07,07,15,29,6.40
2012,07,07,15,30,9.60
2012,07,07,15,31,8.10
2012,07,07,15,32,9.60
2012,07,07,15,33,9.60
2012,07,07,15,34,8.10
2012,07,07,15,35,6.40
2012,07,07,15,36,3.20
2012,07,07,15,37,1.60
2012,07,07,15,38,8.10
2012,07,07,15,39,8.10
2012,07,07,15,40,11.30
2012,07,07,15,41,4.80
2012,07,07,15,42,6.40
2012,07,07,15,43,6.40
2012,07,07,15,44,8.10
2012,07,07,15,45,8.10
2012,07,07,15,46,8.10
2012,07,07,15,47,8.10
2012,07,07,15,48,6.40
2012,07,07,15,49,6.40
2012,07,07,15,50,4.80
2012,07,07,15,51,8.10
2012,07,07,15,52,8.10
2012,07,07,15,53,6.40
2012,07,07,15,54,8.10
2012,07,07,15,55,8.10
2012,07,07,15,56,8.10
2012,07,07,15,57,6.40
2012,07,07,15,58,4.80
2012,07,07,15,59,3.20
2012,07,07,16,00,3.20
2012,07,07,16,01,8.10
2012,07,07,16,02,6.40
2012,07,07,16,03,1.60
2012,07,07,16,04,6.40
2012,07,07,16,05,4.80
2012,07,07,16,06,4.80
2012,07,07,16,07,4.80
2012,07,07,16,08,4.80
2012,07,07,16,09,4.80
2012,07,07,16,10,6.40
2012,07,07,16,11,6.40
2012,07,07,16,12,6.40
2012,07,07,16,13,6.40
2012,07,07,16,14,6.40
2012,07,07,16,15,4.80
2012,07,07,16,16,4.80
2012,07,07,16,17,8.10
2012,07,07,16,18,8.10
2012,07,07,16,19,6.40
2012,07,07,16,20,6.40
2012,07,07,16,21,6.40
2012,07,07,16,22,4.80
2012,07,07,16,23,6.40
2012,07,07,16,24,8.10
2012,07,07,16,25,12.90
2012,07,07,16,26,8.10
2012,07,07,16,27,4.80
2012,07,07,16,28,8.10
2012,07,07,16,29,9.60
2012,07,07,16,30,9.60
2012,07,07,16,31,9.60
2012,07,07,16,32,4.80
2012,07,07,16,33,6.40
2012,07,07,16,34,11.30
2012,07,07,16,35,8.10
2012,07,07,16,36,11.30
2012,07,07,16,37,9.60
2012,07,07,16,38,8.10
2012,07,07,16,39,8.10
2012,07,07,16,40,6.40
2012,07,07,16,41,6.40
2012,07,07,16,42,3.20
2012,07,07,16,43,6.40
2012,07,07,16,44,9.60
2012,07,07,16,45,8.10
2012,07,07,16,46,4.80
2012,07,07,16,47,8.10
2012,07,07,16,48,6.40
2012,07,07,16,49,11.30
2012,07,07,16,50,8.10
2012,07,07,16,51,8.10
2012,07,07,16,52,8.10
2012,07,07,16,53,8.10
2012,07,07,16,54,9.60
2012,07,07,16,55,9.60
2012,07,07,16,56,9.60
2012,07,07,16,57,8.10
2012,07,07,16,58,8.10
2012,07,07,16,59,9.60
2012,07,07,17,00,9.60
2012,07,07,17,01,8.10
2012,07,07,17,02,8.10
2012,07,07,17,03,8.10
2012,07,07,17,04,9.60
2012,07,07,17,05,9.60
2012,07,07,17,06,6.40
2012,07,07,17,07,14.50
2012,07,07,17,08,6.40
2012,07,07,17,09,9.60
2012,07,07,17,10,9.60
2012,07,07,17,11,8.10
2012,07,07,17,12,12.90
2012,07,07,17,13,8.10
2012,07,07,17,14,14.50
2012,07,07,17,15,9.60
2012,07,07,17,16,9.60
2012,07,07,17,17,9.60
2012,07,07,17,18,8.10
2012,07,07,17,19,9.60
2012,07,07,17,20,9.60
2012,07,07,17,21,9.60
2012,07,07,17,22,8.10
2012,07,07,17,23,9.60
2012,07,07,17,24,9.60
2012,07,07,17,25,9.60
2012,07,07,17,26,8.10
2012,07,07,17,27,3.20
2012,07,07,17,28,8.10
2012,07,07,17,29,6.40
2012,07,07,17,30,6.40
2012,07,07,17,31,6.40
2012,07,07,17,32,9.60
2012,07,07,17,33,8.10
2012,07,07,17,34,6.40
2012,07,07,17,35,4.80
2012,07,07,17,36,9.60
2012,07,07,17,37,8.10
2012,07,07,17,38,4.80
2012,07,07,17,39,6.40
2012,07,07,17,40,6.40
2012,07,07,17,41,6.40
2012,07,07,17,42,8.10
2012,07,07,17,43,6.40
2012,07,07,17,44,4.80
2012,07,07,17,45,9.60
2012,07,07,17,46,4.80
2012,07,07,17,47,8.10
2012,07,07,17,48,9.60
2012,07,07,17,49,8.10
2012,07,07,17,50,6.40
2012,07,07,17,51,3.20
2012,07,07,17,52,4.80
2012,07,07,17,53,4.80
2012,07,07,17,54,4.80
2012,07,07,17,55,8.10
2012,07,07,17,56,8.10
2012,07,07,17,57,9.60
2012,07,07,17,58,8.10
2012,07,07,17,59,9.60
2012,07,07,18,00,8.10
2012,07,07,18,01,6.40
2012,07,07,18,02,9.60
2012,07,07,18,03,8.10
2012,07,07,18,04,9.60
2012,07,07,18,05,9.60
2012,07,07,18,06,4.80
2012,07,07,18,07,3.20
2012,07,07,18,08,6.40
2012,07,07,18,09,4.80
2012,07,07,18,10,8.10
2012,07,07,18,11,11.30
2012,07,07,18,12,8.10
2012,07,07,18,13,8.10
2012,07,07,18,14,8.10
2012,07,07,18,15,6.40
2012,07,07,18,16,4.80
2012,07,07,18,17,4.80
2012,07,07,18,18,6.40
2012,07,07,18,19,14.50
2012,07,07,18,20,9.60
2012,07,07,18,21,9.60
2012,07,07,18,22,9.60
2012,07,07,18,23,4.80
2012,07,07,18,24,4.80
2012,07,07,18,25,8.10
2012,07,07,18,26,6.40
2012,07,07,18,27,8.10
2012,07,07,18,28,6.40
2012,07,07,18,29,6.40
2012,07,07,18,30,3.20
2012,07,07,18,31,4.80
2012,07,07,18,32,8.10
2012,07,07,18,33,6.40
2012,07,07,18,34,6.40
2012,07,07,18,35,6.40
2012,07,07,18,36,6.40
2012,07,07,18,37,11.30
2012,07,07,18,38,9.60
2012,07,07,18,39,8.10
2012,07,07,18,40,4.80
2012,07,07,18,41,4.80
2012,07,07,18,42,6.40
2012,07,07,18,43,4.80
2012,07,07,18,44,4.80
2012,07,07,18,45,4.80
2012,07,07,18,46,4.80
2012,07,07,18,47,4.80
2012,07,07,18,48,4.80
2012,07,07,18,49,3.20
2012,07,07,18,50,3.20
2012,07,07,18,51,8.10
2012,07,07,18,52,8.10
2012,07,07,18,53,8.10
2012,07,07,18,54,8.10
2012,07,07,18,55,8.10
2012,07,07,18,56,9.60
2012,07,07,18,57,6.40
2012,07,07,18,58,8.10
2012,07,07,18,59,8.10
2012,07,07,19,00,8.10
2012,07,07,19,01,8.10
2012,07,07,19,02,9.60
2012,07,07,19,03,9.60
2012,07,07,19,04,11.30
2012,07,07,19,05,6.40
2012,07,07,19,06,9.60
2012,07,07,19,07,6.40
2012,07,07,19,08,6.40
2012,07,07,19,09,8.10
2012,07,07,19,10,11.30
2012,07,07,19,11,9.60
2012,07,07,19,12,8.10
2012,07,07,19,13,6.40
2012,07,07,19,14,8.10
2012,07,07,19,15,9.60
2012,07,07,19,16,8.10
2012,07,07,19,17,4.80
2012,07,07,19,18,6.40
2012,07,07,19,19,8.10
2012,07,07,19,20,4.80
2012,07,07,19,21,8.10
2012,07,07,19,22,6.40
2012,07,07,19,23,8.10
2012,07,07,19,24,6.40
2012,07,07,19,25,8.10
2012,07,07,19,26,4.80
2012,07,07,19,27,4.80
2012,07,07,19,28,4.80
2012,07,07,19,29,4.80
2012,07,07,19,30,6.40
2012,07,07,19,31,6.40
2012,07,07,19,32,4.80
2012,07,07,19,33,6.40
2012,07,07,19,34,6.40
2012,07,07,19,35,4.80
2012,07,07,19,36,6.40
2012,07,07,19,37,6.40
2012,07,07,19,38,4.80
2012,07,07,19,39,4.80
2012,07,07,19,40,6.40
2012,07,07,19,41,6.40
2012,07,07,19,42,4.80
2012,07,07,19,43,8.10
2012,07,07,19,44,8.10
2012,07,07,19,45,6.40
2012,07,07,19,46,1.60
2012,07,07,19,47,4.80
2012,07,07,19,48,6.40
2012,07,07,19,49,6.40
2012,07,07,19,50,4.80
2012,07,07,19,51,4.80
2012,07,07,19,52,3.20
2012,07,07,19,53,4.80
2012,07,07,19,54,4.80
2012,07,07,19,55,4.80
2012,07,07,19,56,3.20
2012,07,07,19,57,1.60
2012,07,07,19,58,3.20
2012,07,07,19,59,4.80
2012,07,07,20,00,3.20
2012,07,07,20,01,8.10
2012,07,07,20,02,8.10
2012,07,07,20,03,6.40
2012,07,07,20,04,3.20
2012,07,07,20,05,1.60
2012,07,07,20,06,6.40
2012,07,07,20,07,4.80
2012,07,07,20,08,4.80
2012,07,07,20,09,6.40
2012,07,07,20,10,6.40
2012,07,07,20,11,8.10
2012,07,07,20,12,6.40
2012,07,07,20,13,4.80
2012,07,07,20,14,1.60
2012,07,07,20,15,1.60
2012,07,07,20,16,1.60
2012,07,07,20,17,1.60
2012,07,07,20,22,3.20
2012,07,07,20,23,3.20
2012,07,07,20,24,4.80
2012,07,07,20,25,3.20
2012,07,07,20,26,1.60
2012,07,07,20,27,6.40
2012,07,07,20,28,6.40
2012,07,07,20,29,4.80
2012,07,07,20,30,3.20
2012,07,07,20,31,1.60
2012,07,07,20,32,1.60
2012,07,07,20,41,1.60
2012,07,07,20,42,1.60
2012,07,07,20,43,1.60
2012,07,07,20,53,1.60
2012,07,07,20,54,1.60
2012,07,07,20,55,1.60
2012,07,07,20,58,1.60
2012,07,07,20,59,1.60
2012,07,07,21,00,1.60
2012,07,07,21,01,3.20
2012,07,07,21,02,3.20
2012,07,07,21,03,1.60
2012,07,07,21,04,1.60
2012,07,07,21,05,3.20
2012,07,07,21,07,1.60
2012,07,07,21,08,1.60
2012,07,07,21,10,1.60
2012,07,07,21,20,1.60
2012,07,07,21,21,1.60
2012,07,07,21,22,1.60
2012,07,07,21,23,1.60
2012,07,07,21,25,1.60
2012,07,07,21,26,1.60
2012,07,07,21,27,3.20
2012,07,07,21,28,3.20
2012,07,07,21,29,1.60
2012,07,07,21,30,1.60
2012,07,07,21,46,1.60
2012,07,07,21,48,1.60
2012,07,07,21,49,1.60
2012,07,07,21,52,1.60
2012,07,07,21,53,1.60
2012,07,07,21,55,1.60
